CST,Max TemperatureF,Mean TemperatureF,Min TemperatureF,Max Dew PointF,MeanDew PointF,Min DewpointF,Max Humidity, Mean Humidity, Min Humidity, Max Sea Level PressureIn, Mean Sea Level PressureIn, Min Sea Level PressureIn, Max VisibilityMiles, Mean VisibilityMiles, Min VisibilityMiles, Max Wind SpeedMPH, Mean Wind SpeedMPH, Max Gust SpeedMPH,PrecipitationIn, CloudCover, Events, WindDirDegrees
2013-2-1,30,13,-2,23,9,-9,76,68,59,30.48,30.22,30.04,10,10,9,25,10,,0.00,5,,194
2013-2-2,39,31,23,29,21,17,85,73,65,30.23,30.14,30.07,10,8,2,24,9,30,0.01,7,Rain-Snow,315
2013-2-3,43,30,18,30,23,13,81,69,53,30.23,30.04,29.77,10,10,10,24,14,29,0.00,0,,214
2013-2-4,37,29,21,30,20,16,86,79,69,30.06,29.96,29.76,10,6,4,25,12,26,0.00,7,,329
2013-2-5,50,38,26,31,26,23,89,71,43,30.09,29.96,29.83,10,8,2,18,10,30,0.00,2,,289
2013-2-6,48,39,30,36,31,26,88,74,56,30.08,29.94,29.84,10,8,5,17,8,20,0.00,3,,162
2013-2-7,39,34,28,34,27,23,87,78,70,30.27,30.09,29.90,9,4,1,23,14,28,0.00,7,,351
2013-2-8,35,31,27,25,23,22,89,78,64,30.37,30.28,30.17,8,5,2,17,10,,0.00,5,,132
2013-2-9,50,39,28,34,30,25,93,77,54,30.16,29.95,29.70,7,4,2,23,17,29,0.00,6,Rain,154
2013-2-10,46,38,30,42,32,21,96,82,64,29.78,29.44,29.25,10,5,1,31,19,47,0.10,8,Rain-Snow,219
2013-2-11,32,28,21,25,21,17,85,73,66,30.17,30.04,29.82,10,7,1,28,20,41,0.00,6,Snow,301
2013-2-12,50,34,19,26,21,15,88,69,31,30.18,30.02,29.91,10,8,4,17,6,,0.00,0,,230
2013-2-13,55,39,23,30,26,19,85,65,33,29.91,29.80,29.70,10,10,10,20,6,26,0.00,1,,242
2013-2-14,44,34,21,30,26,13,89,72,43,30.32,30.04,29.79,10,8,1,24,12,31,0.00,5,Snow,324
2013-2-15,30,23,10,25,17,8,93,76,46,30.40,30.35,30.30,10,7,0,15,10,,0.00,6,Fog-Snow,345
2013-2-16,34,21,8,25,17,4,88,78,67,30.37,30.17,30.04,10,9,6,15,8,,0.01,4,,176
2013-2-17,53,36,19,31,25,15,85,68,43,30.04,29.80,29.57,10,8,5,23,10,,0.01,0,,147
2013-2-18,37,28,16,31,20,7,88,68,47,30.11,29.83,29.58,10,9,2,33,18,43,0.00,4,Snow,329
2013-2-19,25,16,8,7,1,-3,73,58,30,30.43,30.28,30.09,10,10,9,26,19,32,0.00,2,,325
2013-2-20,27,15,3,6,1,-4,76,53,34,30.46,30.38,30.28,10,10,10,12,8,,0.00,4,,85
2013-2-21,27,24,21,20,15,6,93,74,45,30.29,30.02,29.88,10,3,0,18,14,24,0.00,8,Fog-Snow,48
2013-2-22,23,16,10,18,14,5,93,81,68,30.06,29.96,29.86,10,6,1,17,13,,0.00,5,Snow,316
2013-2-23,30,14,-2,23,7,-8,100,81,68,30.04,29.93,29.84,6,2,0,12,6,,0.04,0,Fog,165
2013-2-24,35,22,10,27,17,3,86,78,67,30.12,29.99,29.89,2,1,0,12,4,,0.00,7,,155
2013-2-25,32,28,24,27,24,21,96,86,79,30.13,30.05,29.95,4,2,0,15,10,,0.00,7,Fog-Snow,1
2013-2-26,33,28,24,28,24,21,96,86,78,29.97,29.90,29.83,3,2,0,22,17,,0.01,7,Fog-Snow,353
2013-2-27,37,30,24,25,22,18,86,75,59,30.14,30.01,29.91,10,6,2,31,17,38,0.00,4,,327
2013-2-28,33,30,27,25,22,19,81,75,70,30.27,30.22,30.14,10,9,7,21,16,23,0.00,7,,328